N774LA KSAN-KLAX

Flight info

Callsign N774LA
Flight time N/A
Altitude
Route
Aircraft DA62/L-VGD/C

Departure

Time 2026-04-20 00:03
Airport San Diego International Airport (KSAN)

Arrival

Time N/A
Airport Los Angeles International Airport (KLAX)
Time Latitude Longitude Altitude Speed Heading
2026-04-19 23:54 32.73326 -117.17818 24 ft 0 kts 147°
2026-04-19 23:57 32.73335 -117.17819 26 ft 12 kts 304°
2026-04-19 23:58 32.73340 -117.17967 21 ft 18 kts 192°
2026-04-19 23:58 32.73184 -117.17781 18 ft 50 kts 108°
2026-04-19 23:58 32.73119 -117.17567 17 ft 7 kts 153°
2026-04-19 23:58 32.73114 -117.17564 17 ft 0 kts 149°
2026-04-20 00:00 32.73098 -117.17552 17 ft 18 kts 149°
2026-04-20 00:00 32.73045 -117.17686 16 ft 8 kts 286°
2026-04-20 00:00 32.73045 -117.17689 16 ft 0 kts 288°
2026-04-20 00:01 32.73047 -117.17695 16 ft 0 kts 285°
2026-04-20 00:02 32.73062 -117.17761 16 ft 32 kts 287°
2026-04-20 00:02 32.73176 -117.18227 19 ft 80 kts 284°
2026-04-20 00:02 32.73362 -117.18947 147 ft 95 kts 285°
2026-04-20 00:03 32.73541 -117.19714 419 ft 98 kts 286°
2026-04-20 00:03 32.73962 -117.20359 716 ft 104 kts 324°
2026-04-20 00:03 32.74571 -117.20847 1029 ft 109 kts 320°
2026-04-20 00:03 32.75270 -117.21238 1356 ft 111 kts 324°
2026-04-20 00:04 32.75907 -117.21782 1673 ft 114 kts 320°
2026-04-20 00:04 32.76550 -117.22343 1997 ft 116 kts 321°
2026-04-20 00:04 32.77200 -117.22925 2342 ft 117 kts 320°
2026-04-20 00:04 32.77880 -117.23494 2606 ft 121 kts 334°
2026-04-20 00:05 32.78694 -117.23784 2965 ft 125 kts 342°
2026-04-20 00:05 32.79522 -117.24098 3331 ft 124 kts 341°
2026-04-20 00:05 32.80353 -117.24420 3648 ft 127 kts 340°
2026-04-20 00:05 32.81176 -117.24743 3985 ft 126 kts 341°
2026-04-20 00:06 32.82020 -117.25076 4328 ft 129 kts 341°
2026-04-20 00:06 32.82876 -117.25413 4632 ft 130 kts 340°
2026-04-20 00:06 32.83739 -117.25750 4924 ft 132 kts 340°
2026-04-20 00:06 32.84615 -117.26101 5209 ft 135 kts 340°
2026-04-20 00:07 32.85506 -117.26452 5530 ft 134 kts 341°
2026-04-20 00:07 32.86390 -117.26802 5832 ft 134 kts 341°
2026-04-20 00:07 32.87286 -117.27157 6085 ft 140 kts 341°
2026-04-20 00:07 32.88289 -117.27552 6100 ft 162 kts 341°
2026-04-20 00:08 32.89413 -117.27997 6104 ft 177 kts 341°
2026-04-20 00:08 32.90618 -117.28474 6098 ft 187 kts 341°
2026-04-20 00:08 32.91875 -117.28971 6087 ft 194 kts 341°
2026-04-20 00:08 32.93175 -117.29486 6063 ft 199 kts 341°
2026-04-20 00:09 32.94288 -117.29896 5832 ft 153 kts 345°
2026-04-20 00:09 32.95294 -117.30267 5906 ft 150 kts 338°
2026-04-20 00:09 32.96267 -117.30699 5980 ft 154 kts 340°
2026-04-20 00:09 32.97304 -117.31125 5983 ft 161 kts 340°
2026-04-20 00:10 32.98384 -117.31556 5984 ft 166 kts 341°
2026-04-20 00:10 32.99494 -117.31997 5985 ft 169 kts 341°
2026-04-20 00:10 33.00623 -117.32444 5986 ft 172 kts 341°
2026-04-20 00:10 33.01765 -117.32897 5985 ft 174 kts 341°
2026-04-20 00:11 33.02916 -117.33354 5985 ft 175 kts 341°
2026-04-20 00:11 33.04075 -117.33814 5984 ft 176 kts 341°
2026-04-20 00:11 33.05238 -117.34277 5988 ft 177 kts 341°
2026-04-20 00:11 33.06407 -117.34741 5988 ft 177 kts 341°
2026-04-20 00:12 33.07578 -117.35206 5992 ft 177 kts 341°
2026-04-20 00:12 33.08742 -117.35669 5996 ft 183 kts 341°
2026-04-20 00:12 33.09978 -117.36158 5999 ft 191 kts 341°
2026-04-20 00:12 33.11256 -117.36665 6001 ft 196 kts 341°
2026-04-20 00:13 33.12561 -117.37185 6000 ft 199 kts 341°
2026-04-20 00:13 33.13883 -117.37711 5991 ft 201 kts 341°
2026-04-20 00:13 33.15217 -117.38242 5992 ft 203 kts 341°
2026-04-20 00:13 33.16557 -117.38776 5993 ft 203 kts 341°
2026-04-20 00:14 33.17901 -117.39311 5995 ft 204 kts 341°
2026-04-20 00:14 33.19248 -117.39849 5995 ft 204 kts 341°
2026-04-20 00:14 33.20596 -117.40386 5995 ft 204 kts 341°
2026-04-20 00:14 33.21944 -117.40924 5995 ft 204 kts 341°
2026-04-20 00:15 33.23296 -117.41465 5992 ft 205 kts 340°
2026-04-20 00:15 33.24526 -117.42304 5989 ft 204 kts 317°
2026-04-20 00:15 33.25546 -117.43485 5990 ft 204 kts 313°
2026-04-20 00:15 33.26559 -117.44673 5988 ft 204 kts 313°
2026-04-20 00:16 33.27573 -117.45853 5991 ft 203 kts 313°
2026-04-20 00:16 33.28586 -117.47031 5990 ft 203 kts 313°
2026-04-20 00:16 33.29589 -117.48207 5994 ft 202 kts 314°
2026-04-20 00:16 33.30593 -117.49374 5993 ft 201 kts 314°
2026-04-20 00:17 33.31596 -117.50539 5995 ft 200 kts 314°
2026-04-20 00:17 33.32593 -117.51702 5996 ft 200 kts 314°
2026-04-20 00:17 33.33590 -117.52865 5996 ft 200 kts 314°
2026-04-20 00:17 33.34589 -117.54030 5981 ft 201 kts 314°
2026-04-20 00:18 33.35589 -117.55196 5976 ft 201 kts 314°
2026-04-20 00:18 33.36587 -117.56361 5976 ft 200 kts 314°
2026-04-20 00:18 33.37584 -117.57524 5976 ft 200 kts 314°
2026-04-20 00:18 33.38569 -117.58675 5978 ft 201 kts 314°
2026-04-20 00:19 33.39574 -117.59849 5977 ft 203 kts 314°
2026-04-20 00:19 33.40584 -117.61031 5973 ft 203 kts 314°
2026-04-20 00:19 33.41591 -117.62207 5973 ft 202 kts 314°
2026-04-20 00:19 33.42607 -117.63396 5973 ft 201 kts 314°
2026-04-20 00:20 33.43608 -117.64568 5969 ft 201 kts 314°
2026-04-20 00:20 33.44606 -117.65737 5966 ft 201 kts 314°
2026-04-20 00:20 33.45591 -117.66890 5973 ft 201 kts 314°
2026-04-20 00:20 33.46597 -117.68068 5971 ft 202 kts 314°
2026-04-20 00:21 33.47607 -117.69251 5962 ft 203 kts 314°
2026-04-20 00:21 33.48613 -117.70432 5962 ft 202 kts 314°
2026-04-20 00:21 33.49622 -117.71616 5960 ft 203 kts 314°
2026-04-20 00:21 33.50631 -117.72801 5965 ft 203 kts 314°
2026-04-20 00:22 33.51640 -117.73986 5965 ft 202 kts 314°
2026-04-20 00:22 33.52645 -117.75171 5966 ft 202 kts 314°
2026-04-20 00:22 33.53653 -117.76352 5966 ft 202 kts 314°
2026-04-20 00:22 33.54660 -117.77535 5968 ft 202 kts 314°
2026-04-20 00:23 33.55650 -117.78701 5970 ft 202 kts 314°
2026-04-20 00:23 33.56652 -117.79880 5994 ft 202 kts 314°
2026-04-20 00:23 33.57651 -117.81055 6004 ft 199 kts 314°
2026-04-20 00:23 33.58641 -117.82221 6003 ft 200 kts 314°
2026-04-20 00:24 33.59638 -117.83394 6000 ft 201 kts 314°
2026-04-20 00:24 33.60636 -117.84569 6002 ft 201 kts 314°
2026-04-20 00:24 33.61636 -117.85747 6000 ft 202 kts 314°
2026-04-20 00:24 33.62637 -117.86926 6000 ft 202 kts 314°
2026-04-20 00:25 33.63639 -117.88108 6003 ft 202 kts 314°
2026-04-20 00:25 33.64644 -117.89292 6004 ft 202 kts 313°
2026-04-20 00:25 33.65647 -117.90476 6000 ft 202 kts 314°
2026-04-20 00:25 33.66642 -117.91650 5999 ft 203 kts 314°
2026-04-20 00:26 33.67652 -117.92842 6001 ft 204 kts 314°
2026-04-20 00:26 33.68666 -117.94040 6001 ft 204 kts 314°
2026-04-20 00:26 33.69681 -117.95239 6001 ft 205 kts 314°
2026-04-20 00:26 33.70696 -117.96438 6001 ft 205 kts 314°
2026-04-20 00:27 33.71711 -117.97637 6001 ft 205 kts 314°
2026-04-20 00:27 33.72727 -117.98838 5999 ft 205 kts 314°